Location: Berg
(48.4333°N, 13.9167°E)
Time: 01:43:26
(UTC+00:00)

SPOT 1/Viking Rocket - Pass Details

Date: 18 September 2020
Orbit: 777 x 794 km, 98.5° (Epoch: 24 October)

Event Time Altitude Azimuth Distance (km) Brightness Sun altitude
Exits shadow 19:33:46 41° 64° (ENE) 1,138 4.1 -23.4°
Drops below altitude 10° 19:38:29 10° 358° (N) 2,352 6.4 -24.1°
Sets 19:40:55 0° 352° (N) 3,282 7.4 -24.4°
